Location: Elmsmere
(40.9284°N, 73.8207°W)
Time: 12:38:42
(UTC+00:00)

STARLINK-5279 - Pass Details

Date: 27 November 2022
Orbit: 539 x 540 km, 53.2° (Epoch: 08 February)

Event Time Altitude Azimuth Distance (km) Brightness Sun altitude
Exits shadow 10:14:15 31° 229° (SW) 995 ? -18.9°
Maximum altitude 10:14:16 31° 229° (SW) 995 ? -18.9°
Drops below altitude 10° 10:17:55 10° 167° (SSE) 1,821 ? -18.2°
Sets 10:20:18 0° 156° (SSE) 2,705 ? -17.8°
